sat.trackr.live / text

‹ back to catalog

STARLINK-3829

NORAD 52348 · 2022-045T

PAYLOAD ACTIVE UNKNOWN

§ Identity

Operator
Country
US
Launch date
2022-04-29
Launch site
AFETR
Launch vehicle
Mass (kg)
RCS (m²)

Purposes: comms

External: N2YO · Heavens-Above · Gunter

§ Orbital elements

Epoch: 2026-09-20T00:27:16.348608Z

Period
93.79 min
Inclination
53.1631°
Eccentricity
0.0000853
Mean motion
15.35426412 rev/d
Perigee alt
459.1 km
Apogee alt
460.2 km
Semi-major
6,837.8 km
B*
1.4552e-4
RAAN
33.1595°
Arg perigee
89.0126°
Mean anomaly
271.0975°
Rev number
24,530

§ Raw data

STARLINK-38291 52348U 22045T   26263.01893922  .00004703  00000+0  14552-3 0  99912 52348  53.1631  33.1595 0000853  89.0126 271.0975 15.35426412245309

JSON: /api/v1/satellites/52348 · /tle

For live sub-satellite position, see the globe view (requires WebGL).

§ Visibility from observer

Set your observer location to see the next 7 days of passes ≥ 10°. The values pass through the URL so the page stays shareable.

No JS? Fill the form by hand. The geolocation button needs JavaScript.